sat.trackr.live / text

‹ back to catalog

STARLINK-32101

NORAD 60447 · 2024-144Y

PAYLOAD ACTIVE UNKNOWN

§ Identity

Operator
Country
US
Launch date
2024-08-12
Launch site
AFETR
Launch vehicle
Mass (kg)
RCS (m²)

Purposes: comms

External: N2YO · Heavens-Above · Gunter

§ Orbital elements

Epoch: 2026-05-25T05:23:22.026336Z

Period
93.85 min
Inclination
53.1602°
Eccentricity
0.0001221
Mean motion
15.34403027 rev/d
Perigee alt
461.9 km
Apogee alt
463.5 km
Semi-major
6,840.8 km
B*
3.6801e-5
RAAN
220.4532°
Arg perigee
89.4209°
Mean anomaly
270.6933°
Rev number
10,104

§ Raw data

STARLINK-321011 60447U 24144Y   26145.22456049  .00000867  00000+0  36801-4 0  99982 60447  53.1602 220.4532 0001221  89.4209 270.6933 15.34403027101041

JSON: /api/v1/satellites/60447 · /tle

For live sub-satellite position, see the globe view (requires WebGL).

§ Visibility from observer

Set your observer location to see the next 7 days of passes ≥ 10°. The values pass through the URL so the page stays shareable.

No JS? Fill the form by hand. The geolocation button needs JavaScript.